Location: Madrid
(40.4167°N, 3.7036°W)
Time: 13:26:41
(UTC+00:00)

ISS - Pass Details

Date: 11 July 2024
Orbit: 410 x 424 km, 51.6° (Epoch: 14 July)

Event Time Altitude Azimuth Distance (km) Brightness Sun altitude
Rises 21:45:23 0° 266° (W) 2,333 0.5 -18.0°
Reaches altitude 10° 21:47:44 10° 281° (W) 1,474 -0.3 -18.2°
Maximum altitude 21:50:27 23° 337° (NNW) 916 -1.2 -18.5°
Drops below altitude 10° 21:53:12 10° 32° (NNE) 1,480 -0.7 -18.8°
Sets 21:55:35 0° 48° (NE) 2,345 0.1 -19.1°
